GW6241 Weather Reports


time (UTC)temp
C
wind
direction
speed
KPH
gust
KPH
rain 1hr
cm
rain 24hr
cm
rain mn
cm
humidity
%
barometer
mb
20260507180505 32 88 3.2 9.7 0.00 0.00 0.00 9 1014.2
20260507180014 33 51 4.8 11.3 0.00 0.00 0.00 10 1014.3
20260507175506 33 245 3.2 14.5 0.00 0.00 0.00 10 1014.4
20260507175007 32 268 8.0 17.7 0.00 0.00 0.00 11 1014.4
20260507174535 32 114 6.4 17.7 0.00 0.00 0.00 10 1014.4
20260507174003 32 203 8.0 17.7 0.00 0.00 0.00 10 1014.5
20260507173503 33 265 6.4 12.9 0.00 0.00 0.00 10 1014.6
20260507173006 33 218 6.4 11.3 0.00 0.00 0.00 10 1014.7
20260507172509 33 132 1.6 8.0 0.00 0.00 0.00 10 1014.7
20260507172006 32 269 1.6 9.7 0.00 0.00 0.00 11 1014.8
20260507171510 32 261 3.2 9.7 0.00 0.00 0.00 10 1014.8
20260507171007 31 231 4.8 11.3 0.00 0.00 0.00 10 1014.8
20260507170504 30 217 1.6 11.3 0.00 0.00 0.00 11 1014.9
20260507170016 31 51 3.2 9.7 0.00 0.00 0.00 10 1014.9
20260507165506 32 67 3.2 9.7 0.00 0.00 0.00 10 1014.9
20260507165006 32 306 4.8 8.0 0.00 0.00 0.00 10 1015.0
20260507164520 32 183 3.2 6.4 0.00 0.00 0.00 10 1014.9
20260507164011 32 278 1.6 6.4 0.00 0.00 0.00 10 1015.0
20260507163506 32 270 3.2 9.7 0.00 0.00 0.00 11 1015.0
20260507163023 32 80 1.6 12.9 0.00 0.00 0.00 10 1015.1
20260507162504 32 251 4.8 12.9 0.00 0.00 0.00 10 1015.2
20260507162005 32 265 4.8 11.3 0.00 0.00 0.00 10 1015.1
20260507161506 32 213 4.8 9.7 0.00 0.00 0.00 11 1015.2
20260507161006 31 268 1.6 6.4 0.00 0.00 0.00 11 1015.2
20260507160504 31 263 3.2 6.4 0.00 0.00 0.00 12 1015.3
20260507160019 30 268 1.6 8.0 0.00 0.00 0.00 12 1015.3
20260507155508 30 215 3.2 8.0 0.00 0.00 0.00 11 1015.3
20260507155007 30 175 4.8 9.7 0.00 0.00 0.00 11 1015.3
20260507154529 30 194 1.6 9.7 0.00 0.00 0.00 11 1015.3
20260507154011 31 216 3.2 6.4 0.00 0.00 0.00 11 1015.4
20260507153506 30 274 1.6 4.8 0.00 0.00 0.00 11 1015.4
20260507153035 30 264 1.6 4.8 0.00 0.00 0.00 13 1015.4
20260507152510 29 205 1.6 4.8 0.00 0.00 0.00 12 1015.4
20260507152011 28 211 1.6 3.2 0.00 0.00 0.00 13 1015.5
20260507151505 27 178 0.0 4.8 0.00 0.00 0.00 13 1015.5
20260507151004 27 184 3.2 4.8 0.00 0.00 0.00 13 1015.6
20260507150504 27 222 1.6 6.4 0.00 0.00 0.00 14 1015.5
20260507150011 27 211 1.6 6.4 0.00 0.00 0.00 17 1015.6
20260507145505 26 202 4.8 6.4 0.00 0.00 0.00 17 1015.6
20260507145007 26 186 3.2 8.0 0.00 0.00 0.00 18 1015.6
20260507144518 26 212 4.8 9.7 0.00 0.00 0.00 19 1015.6
20260507144007 26 221 4.8 9.7 0.00 0.00 0.00 20 1015.5
20260507143507 26 246 4.8 8.0 0.00 0.00 0.00 19 1015.5
20260507143025 25 216 3.2 6.4 0.00 0.00 0.00 18 1015.5
20260507142509 25 261 0.0 6.4 0.00 0.00 0.00 22 1015.4
20260507142010 25 219 1.6 6.4 0.00 0.00 0.00 21 1015.4
20260507141523 24 233 3.2 6.4 0.00 0.00 0.00 23 1015.4
20260507141007 23 196 3.2 8.0 0.00 0.00 0.00 23 1015.3
20260507140504 23 190 3.2 11.3 0.00 0.00 0.00 23 1015.3
20260507140012 23 181 0.0 11.3 0.00 0.00 0.00 23 1015.3
20260507135503 23 208 6.4 9.7 0.00 0.00 0.00 21 1015.3
20260507135005 23 352 0.0 6.4 0.00 0.00 0.00 18 1015.3
20260507134514 22 37 1.6 8.0 0.00 0.00 0.00 20 1015.2
20260507134006 21 360 4.8 16.1 0.00 0.00 0.00 20 1015.1
20260507133506 21 51 3.2 16.1 0.00 0.00 0.00 23 1015.1
20260507133026 20 56 3.2 6.4 0.00 0.00 0.00 25 1015.1
20260507132506 20 62 0.0 4.8 0.00 0.00 0.00 28 1015.0
20260507132010 20 40 0.0 3.2 0.00 0.00 0.00 28 1015.0
20260507131524 19 55 1.6 4.8 0.00 0.00 0.00 28 1015.0
20260507131007 19 5 0.0 4.8 0.00 0.00 0.00 30 1014.9
20260507130511 19 329 1.6 4.8 0.00 0.00 0.00 29 1014.9
20260507130035 18 42 3.2 4.8 0.00 0.00 0.00 29 1014.9
20260507125508 18 85 3.2 4.8 0.00 0.00 0.00 29 1014.9
20260507125003 18 55 3.2 8.0 0.00 0.00 0.00 30 1014.9
20260507124519 18 77 4.8 9.7 0.00 0.00 0.00 31 1014.9
20260507124007 17 55 6.4 9.7 0.00 0.00 0.00 31 1014.9
20260507123507 17 51 6.4 8.0 0.00 0.00 0.00 31 1014.8
20260507123015 17 54 4.8 11.3 0.00 0.00 0.00 31 1014.8
20260507122507 17 49 8.0 12.9 0.00 0.00 0.00 31 1014.7
20260507122008 17 53 6.4 12.9 0.00 0.00 0.00 31 1014.8
20260507121522 17 42 6.4 9.7 0.00 0.00 0.00 31 1014.9
20260507121008 17 34 6.4 9.7 0.00 0.00 0.00 31 1014.9
20260507120511 17 46 6.4 14.5 0.00 0.00 0.00 31 1014.9
20260507120025 17 42 6.4 14.5 0.00 0.00 0.00 31 1014.9
20260507115508 17 61 6.4 14.5 0.00 0.00 0.00 31 1014.9
20260507115013 17 19 6.4 14.5 0.00 0.00 0.00 31 1015.0
20260507114508 17 19 8.0 14.5 0.00 0.00 0.00 31 1015.0
20260507114014 17 69 8.0 14.5 0.00 0.00 0.00 31 1015.0
20260507113504 17 62 8.0 12.9 0.00 0.00 0.00 31 1015.1
20260507113014 17 36 6.4 12.9 0.00 0.00 0.00 31 1015.2
20260507112509 17 66 6.4 9.7 0.00 0.00 0.00 32 1015.2
20260507112009 17 48 3.2 6.4 0.00 0.00 0.00 31 1015.3
20260507111521 17 13 1.6 8.0 0.00 0.00 0.00 31 1015.3
20260507111006 17 28 1.6 12.9 0.00 0.00 0.00 31 1015.3
20260507110507 17 57 4.8 14.5 0.00 0.00 0.00 30 1015.3
20260507110023 17 30 9.7 14.5 0.00 0.00 0.00 31 1015.3
20260507105508 17 20 8.0 11.3 0.00 0.00 0.00 30 1015.3
20260507105007 17 11 4.8 11.3 0.00 0.00 0.00 31 1015.3
20260507104527 17 25 6.4 12.9 0.00 0.00 0.00 30 1015.3
20260507104012 17 53 4.8 12.9 0.00 0.00 0.00 31 1015.3
20260507103512 17 65 4.8 11.3 0.00 0.00 0.00 30 1015.3
20260507103026 18 74 4.8 11.3 0.00 0.00 0.00 30 1015.4
20260507102504 18 50 4.8 9.7 0.00 0.00 0.00 30 1015.5
20260507102006 18 54 3.2 8.0 0.00 0.00 0.00 30 1015.5
20260507101518 18 51 4.8 8.0 0.00 0.00 0.00 30 1015.5
20260507101007 17 46 6.4 8.0 0.00 0.00 0.00 30 1015.6
20260507100506 18 70 4.8 8.0 0.00 0.00 0.00 31 1015.6
20260507100027 18 53 4.8 9.7 0.00 0.00 0.00 30 1015.7
20260507095509 18 56 6.4 16.1 0.00 0.00 0.00 30 1015.7
20260507095007 18 63 6.4 16.1 0.00 0.00 0.00 30 1015.6
20260507094527 17 65 11.3 16.1 0.00 0.00 0.00 31 1015.7
20260507094007 17 86 8.0 11.3 0.00 0.00 0.00 31 1015.6
20260507093509 17 80 6.4 14.5 0.00 0.00 0.00 32 1015.6
20260507093028 17 52 8.0 14.5 0.00 0.00 0.00 32 1015.6
20260507092518 17 58 9.7 14.5 0.00 0.00 0.00 32 1015.7
20260507092009 17 63 6.4 12.9 0.00 0.00 0.00 32 1015.6
20260507091517 17 76 9.7 14.5 0.00 0.00 0.00 32 1015.7
20260507091006 17 49 9.7 14.5 0.00 0.00 0.00 32 1015.8
20260507090507 17 78 9.7 12.9 0.00 0.00 0.00 31 1015.8
20260507090022 17 92 8.0 16.1 0.00 0.00 0.00 31 1015.8
20260507085507 17 97 8.0 16.1 0.00 0.00 0.00 31 1015.9
20260507085006 18 59 8.0 16.1 0.00 0.00 0.00 30 1015.9
20260507084522 18 82 11.3 16.1 0.00 0.00 0.00 30 1015.8
20260507084010 18 32 8.0 16.1 0.00 0.00 0.00 30 1015.8
20260507083509 18 62 9.7 17.7 0.00 0.00 0.00 30 1015.8
20260507083025 18 42 9.7 17.7 0.00 0.00 0.00 30 1015.8
20260507082508 18 72 9.7 17.7 0.00 0.00 0.00 31 1015.9
20260507082008 18 67 8.0 14.5 0.00 0.00 0.00 31 1015.9
20260507081526 18 60 8.0 14.5 0.00 0.00 0.00 31 1015.9
20260507081010 17 80 9.7 14.5 0.00 0.00 0.00 31 1015.9
20260507080507 17 79 8.0 14.5 0.00 0.00 0.00 31 1016.0
20260507080018 17 52 8.0 12.9 0.00 0.00 0.00 31 1016.0
20260507075506 17 57 8.0 11.3 0.00 0.00 0.00 32 1016.0
20260507075009 17 65 6.4 11.3 0.00 0.00 0.00 32 1016.0
20260507074529 17 84 6.4 11.3 0.00 0.00 0.00 32 1016.1
20260507074009 17 65 6.4 9.7 0.00 0.00 0.00 32 1016.1
20260507073511 17 76 6.4 9.7 0.00 0.00 0.00 32 1016.2
20260507073026 17 67 4.8 8.0 0.00 0.00 0.00 32 1016.1
20260507072507 17 90 6.4 9.7 0.00 0.00 0.00 32 1016.2
20260507072012 17 82 6.4 12.9 0.00 0.00 0.00 32 1016.1
20260507071556 17 73 6.4 12.9 0.00 0.00 0.00 32 1016.1
20260507071011 17 57 6.4 11.3 0.00 0.00 0.00 32 1016.2
20260507070511 17 84 6.4 11.3 0.00 0.00 0.00 32 1016.2
20260507070030 17 68 6.4 9.7 0.00 0.00 0.00 32 1016.3
20260507065506 17 72 4.8 9.7 0.00 0.00 0.00 32 1016.2
20260507065006 17 68 6.4 9.7 0.00 0.00 0.00 32 1016.2
20260507064521 17 81 6.4 8.0 0.00 0.00 0.00 32 1016.1
20260507064013 17 94 4.8 11.3 0.00 0.00 0.00 32 1016.1
20260507063508 17 85 6.4 11.3 0.00 0.00 0.00 33 1016.2
20260507063023 17 84 6.4 8.0 0.00 0.00 0.00 33 1016.2
20260507062512 17 92 4.8 6.4 0.00 0.00 0.00 32 1016.1
20260507062011 17 76 4.8 6.4 0.00 0.00 0.00 32 1016.1
20260507061530 17 89 3.2 6.4 0.00 0.00 0.00 32 1016.1
20260507061006 17 78 4.8 6.4 0.00 0.00 0.00 33 1016.1
20260507060508 18 77 4.8 6.4 0.00 0.00 0.00 33 1016.1
20260507060026 18 71 4.8 4.8 0.00 0.00 0.00 32 1016.1
20260507055509 18 78 3.2 4.8 0.00 0.00 0.00 33 1016.0
20260507055014 18 83 3.2 4.8 0.00 0.00 0.00 33 1016.0
20260507054516 18 82 3.2 4.8 0.00 0.00 0.00 33 1016.0
20260507054014 18 79 3.2 4.8 0.00 0.00 0.00 32 1016.0
20260507053510 18 76 3.2 4.8 0.00 0.00 0.00 33 1016.0
20260507053025 18 74 3.2 3.2 0.00 0.00 0.00 31 1016.0
20260507052510 18 78 1.6 3.2 0.00 0.00 0.00 31 1016.0
20260507052008 18 78 1.6 4.8 0.00 0.00 0.00 31 1016.0
20260507051531 18 70 3.2 4.8 0.00 0.00 0.00 32 1016.0
20260507051009 18 81 3.2 4.8 0.00 0.00 0.00 32 1016.0
20260507050509 18 67 1.6 3.2 0.00 0.00 0.00 31 1016.0
20260507050034 18 73 0.0 3.2 0.00 0.00 0.00 33 1016.0
20260507045509 18 75 3.2 4.8 0.00 0.00 0.00 31 1016.0
20260507045009 18 73 3.2 4.8 0.00 0.00 0.00 32 1015.9
20260507044519 18 74 3.2 3.2 0.00 0.00 0.00 31 1015.9
20260507044008 18 80 1.6 3.2 0.00 0.00 0.00 30 1015.9
20260507043508 19 83 1.6 3.2 0.00 0.00 0.00 30 1015.9
20260507043027 19 87 3.2 3.2 0.00 0.00 0.00 30 1015.8
20260507042509 19 93 1.6 1.6 0.00 0.00 0.00 30 1015.8
20260507042003 19 261 1.6 1.6 0.00 0.00 0.00 29 1015.7
20260507041504 20 261 1.6 1.6 0.00 0.00 0.00 30 1015.7
20260507041010 20 260 0.0 1.6 0.00 0.00 0.00 28 1015.6
20260507040507 20 260 0.0 0.0 0.00 0.00 0.00 28 1015.5
20260507040007 20 260 0.0 0.0 0.00 0.00 0.00 27 1015.5
20260507035504 20 260 0.0 1.6 0.00 0.00 0.00 27 1015.4
20260507035004 21 260 0.0 1.6 0.00 0.00 0.00 27 1015.4
20260507034529 21 260 0.0 3.2 0.00 0.00 0.00 27 1015.4
20260507034007 21 260 0.0 3.2 0.00 0.00 0.00 27 1015.3
20260507033508 21 260 0.0 3.2 0.00 0.00 0.00 26 1015.2
20260507033032 21 254 0.0 3.2 0.00 0.00 0.00 26 1015.2
20260507032513 22 226 1.6 3.2 0.00 0.00 0.00 25 1015.1
20260507032010 22 237 1.6 4.8 0.00 0.00 0.00 25 1015.1
20260507031522 22 257 3.2 6.4 0.00 0.00 0.00 26 1014.9
20260507031013 22 265 3.2 4.8 0.00 0.00 0.00 26 1014.8
20260507030506 22 259 1.6 8.0 0.00 0.00 0.00 25 1014.7
20260507030006 22 234 1.6 8.0 0.00 0.00 0.00 25 1014.7
20260507025505 23 248 1.6 4.8 0.00 0.00 0.00 25 1014.6
20260507025005 23 216 0.0 4.8 0.00 0.00 0.00 24 1014.5
20260507024512 23 223 1.6 6.4 0.00 0.00 0.00 24 1014.5
20260507024008 23 263 1.6 6.4 0.00 0.00 0.00 24 1014.4
20260507023507 23 269 1.6 9.7 0.00 0.00 0.00 24 1014.4
20260507023025 23 265 3.2 11.3 0.00 0.00 0.00 23 1014.3
20260507022507 24 242 3.2 11.3 0.00 0.00 0.00 24 1014.3
20260507022010 24 233 4.8 12.9 0.00 0.00 0.00 23 1014.2
20260507021522 24 262 4.8 12.9 0.00 0.00 0.00 23 1014.2
20260507021012 25 237 3.2 11.3 0.00 0.00 0.00 22 1014.1
20260507020512 25 266 3.2 16.1 0.00 0.00 0.00 23 1014.0
20260507020025 25 219 3.2 16.1 0.00 0.00 0.00 22 1014.0
20260507015504 25 287 4.8 12.9 0.00 0.00 0.00 22 1013.9
20260507015017 25 261 6.4 17.7 0.00 0.00 0.00 22 1013.9
20260507014513 25 275 6.4 17.7 0.00 0.00 0.00 22 1013.9
20260507014006 26 273 3.2 14.5 0.00 0.00 0.00 22 1013.8
20260507013510 26 268 4.8 14.5 0.00 0.00 0.00 22 1013.8
20260507013016 26 265 8.0 12.9 0.00 0.00 0.00 22 1013.8
20260507012509 26 271 4.8 9.7 0.00 0.00 0.00 22 1013.9
20260507012011 26 262 3.2 12.9 0.00 0.00 0.00 22 1013.9
20260507011522 26 281 8.0 12.9 0.00 0.00 0.00 21 1013.9
20260507011006 26 229 4.8 14.5 0.00 0.00 0.00 21 1013.9
20260507010506 26 219 8.0 16.1 0.00 0.00 0.00 21 1013.9
20260507010025 26 273 6.4 22.5 0.00 0.00 0.00 21 1013.8
20260507005511 26 264 11.3 22.5 0.00 0.00 0.00 21 1013.8
20260507005011 26 219 8.0 12.9 0.00 0.00 0.00 21 1013.8
20260507004509 26 209 6.4 12.9 0.00 0.00 0.00 21 1013.8
20260507004005 27 254 4.8 17.7 0.00 0.00 0.00 21 1013.8
20260507003510 27 240 4.8 17.7 0.00 0.00 0.00 21 1013.8
20260507003013 27 222 4.8 20.9 0.00 0.00 0.00 21 1013.8
20260507002505 27 270 4.8 20.9 0.00 0.00 0.00 20 1013.7
20260507002008 27 272 8.0 17.7 0.00 0.00 0.00 20 1013.7
20260507001518 27 263 8.0 17.7 0.00 0.00 0.00 21 1013.7
20260507001006 27 253 3.2 16.1 0.00 0.00 0.00 20 1013.7
20260507000509 27 254 6.4 17.7 0.00 0.00 0.00 21 1013.8
20260507000024 26 248 8.0 17.7 0.00 0.00 0.00 21 1013.7
20260506235507 26 219 4.8 19.3 0.00 0.00 0.00 21 1013.7
20260506235009 26 268 9.7 19.3 0.00 0.00 0.00 21 1013.7
20260506234526 26 196 6.4 16.1 0.00 0.00 0.00 21 1013.7
20260506234011 26 236 4.8 17.7 0.00 0.00 0.00 21 1013.7
20260506233508 26 118 8.0 17.7 0.00 0.00 0.00 20 1013.8
20260506233012 27 229 8.0 24.1 0.00 0.00 0.00 20 1013.9
20260506232504 27 265 9.7 24.1 0.00 0.00 0.00 20 1013.9
20260506232009 27 190 8.0 19.3 0.00 0.00 0.00 20 1013.8
20260506231516 28 265 3.2 14.5 0.00 0.00 0.00 19 1013.8
20260506231006 28 269 6.4 14.5 0.00 0.00 0.00 20 1013.9
20260506230505 27 267 4.8 16.1 0.00 0.00 0.00 20 1013.9
20260506230021 27 271 3.2 20.9 0.00 0.00 0.00 20 1013.9
20260506225508 27 278 11.3 20.9 0.00 0.00 0.00 20 1014.0
20260506225006 27 275 4.8 12.9 0.00 0.00 0.00 20 1014.0
20260506224504 27 221 4.8 22.5 0.00 0.00 0.00 20 1014.1
20260506224007 27 274 8.0 24.1 0.00 0.00 0.00 21 1014.1
20260506223512 27 270 12.9 24.1 0.00 0.00 0.00 21 1014.1
20260506223009 27 264 6.4 19.3 0.00 0.00 0.00 21 1014.2
20260506222510 28 142 3.2 19.3 0.00 0.00 0.00 20 1014.2
20260506222011 28 235 8.0 16.1 0.00 0.00 0.00 20 1014.3
20260506221516 28 231 9.7 19.3 0.00 0.00 0.00 20 1014.4
20260506221008 27 270 11.3 19.3 0.00 0.00 0.00 20 1014.5
20260506220507 27 304 4.8 16.1 0.00 0.00 0.00 21 1014.6
20260506220031 26 259 3.2 11.3 0.00 0.00 0.00 20 1014.6
20260506215508 27 217 4.8 19.3 0.00 0.00 0.00 19 1014.7
20260506215009 28 217 3.2 19.3 0.00 0.00 0.00 20 1014.8
20260506214527 28 249 9.7 14.5 0.00 0.00 0.00 20 1014.8
20260506214004 27 271 4.8 17.7 0.00 0.00 0.00 21 1014.9
20260506213503 26 262 11.3 17.7 0.00 0.00 0.00 22 1015.1
20260506213030 25 264 3.2 12.9 0.00 0.00 0.00 21 1015.2
20260506212503 26 95 8.0 12.9 0.00 0.00 0.00 21 1015.2
20260506212011 27 90 6.4 20.9 0.00 0.00 0.00 20 1015.3
20260506211513 27 246 12.9 20.9 0.00 0.00 0.00 20 1015.4
20260506211006 27 225 12.9 24.1 0.00 0.00 0.00 20 1015.4
20260506210507 27 129 8.0 24.1 0.00 0.00 0.00 20 1015.5
20260506210019 27 302 8.0 20.9 0.00 0.00 0.00 20 1015.6
20260506205510 27 279 12.9 20.9 0.00 0.00 0.00 20 1015.6
20260506205007 27 323 9.7 16.1 0.00 0.00 0.00 20 1015.7
20260506204522 27 149 4.8 17.7 0.00 0.00 0.00 20 1015.7
20260506204013 27 257 3.2 20.9 0.00 0.00 0.00 20 1015.8
20260506203507 26 261 12.9 20.9 0.00 0.00 0.00 21 1015.9
20260506203013 26 194 8.0 20.9 0.00 0.00 0.00 22 1015.9
20260506202503 26 140 8.0 24.1 0.00 0.00 0.00 21 1015.9
20260506202005 25 244 11.3 24.1 0.00 0.00 0.00 23 1016.0
20260506201525 26 126 14.5 22.5 0.00 0.00 0.00 22 1015.9
20260506201004 25 224 6.4 12.9 0.00 0.00 0.00 22 1016.0
20260506200506 25 149 6.4 12.9 0.00 0.00 0.00 22 1016.1
20260506200020 25 229 6.4 12.9 0.00 0.00 0.00 23 1016.2
20260506195510 26 88 8.0 24.1 0.00 0.00 0.00 22 1016.3
20260506195011 26 204 11.3 24.1 0.00 0.00 0.00 22 1016.3
20260506194504 26 265 4.8 11.3 0.00 0.00 0.00 21 1016.4
20260506194003 27 265 4.8 16.1 0.00 0.00 0.00 21 1016.4
20260506193512 26 272 6.4 16.1 0.00 0.00 0.00 21 1016.4
20260506193005 26 298 4.8 12.9 0.00 0.00 0.00 22 1016.5
20260506192502 27 81 3.2 12.9 0.00 0.00 0.00 21 1016.5
20260506192004 27 294 6.4 14.5 0.00 0.00 0.00 22 1016.5
20260506191508 27 255 8.0 19.3 0.00 0.00 0.00 22 1016.6
20260506191004 26 236 4.8 19.3 0.00 0.00 0.00 21 1016.5
20260506190504 26 258 8.0 19.3 0.00 0.00 0.00 23 1016.6
20260506190020 25 218 6.4 24.1 0.00 0.00 0.00 23 1016.6
20260506185506 25 231 14.5 24.1 0.00 0.00 0.00 24 1016.7
20260506185008 25 174 8.0 19.3 0.00 0.00 0.00 23 1016.7
20260506184526 25 328 4.8 14.5 0.00 0.00 0.00 24 1016.8
20260506184013 23 217 4.8 17.7 0.00 0.00 0.00 25 1017.0
20260506183507 24 198 6.4 17.7 0.00 0.00 0.00 24 1017.0
20260506183005 25 87 4.8 16.1 0.00 0.00 0.00 22 1017.1
20260506182503 25 226 6.4 16.1 0.00 0.00 0.00 23 1017.2
20260506182003 25 271 3.2 17.7 0.00 0.00 0.00 23 1017.2
20260506181509 25 277 6.4 19.3 0.00 0.00 0.00 24 1017.2
20260506181006 24 275 8.0 19.3 0.00 0.00 0.00 24 1017.2